When you browse on this site, cookies collect data to enhance your experience and personalize the content and advertising you see.
Visit our Privacy Policy to learn more. By continuing to use the site, you agree to this use of cookies and data.
  • In United Kingdom
  • List of Countries
  • For 7 days
  • Water Temperature
  • Weather Map
  • Weather Widgets
  • user-avatar
    Login

    Hourly Weather Chiquimula

    Today, 18 August, Sunday

    Time Temperature Precipitation Wind Pressure Humidity
    00:00 +21°C° 0.4 mm 0 mps 707 mmHg 95%
    01:00 +23°C° 0.1 mm 1 mps 707 mmHg 95%
    02:00 +23°C° 0.1 mm 1 mps 707 mmHg 95%
    03:00 +23°C° 0.1 mm 1 mps 706 mmHg 96%
    04:00 +22°C° 0 mm 1 mps 706 mmHg 96%
    05:00 +20°C° 0 mm 0 mps 706 mmHg 96%
    06:00 +20°C° 0 mm 0 mps 706 mmHg 96%
    07:00 +22°C° 0 mm 0 mps 707 mmHg 91%
    08:00 +26°C° 0 mm 1 mps 708 mmHg 86%
    09:00 +27°C° 0 mm 1 mps 708 mmHg 81%
    10:00 +28°C° 0.8 mm 1 mps 708 mmHg 79%
    11:00 +29°C° 0.8 mm 1 mps 708 mmHg 78%
    12:00 +29°C° 0.8 mm 1 mps 708 mmHg 76%
    13:00 +29°C° 1.7 mm 1 mps 707 mmHg 79%
    14:00 +29°C° 1.7 mm 1 mps 706 mmHg 81%
    15:00 +28°C° 1.7 mm 1 mps 706 mmHg 84%
    16:00 +27°C° 2.2 mm 1 mps 706 mmHg 88%
    17:00 +26°C° 2.2 mm 1 mps 706 mmHg 91%
    18:00 +25°C° 2.2 mm 1 mps 706 mmHg 94%
    19:00 +24°C° 1.5 mm 1 mps 706 mmHg 95%
    20:00 +24°C° 1.5 mm 1 mps 707 mmHg 96%
    21:00 +23°C° 1.5 mm 1 mps 707 mmHg 97%
    22:00 +23°C° 1.3 mm 1 mps 707 mmHg 97%
    23:00 +23°C° 1.3 mm 1 mps 707 mmHg 97%

    Tomorrow, 19 August, Monday

    Time Temperature Precipitation Wind Pressure Humidity
    00:00 +23°C° 1.3 mm 1 mps 707 mmHg 98%
    01:00 +23°C° 0.9 mm 1 mps 707 mmHg 98%
    02:00 +20°C° 0.9 mm 0 mps 706 mmHg 98%
    03:00 +20°C° 0.9 mm 0 mps 706 mmHg 98%
    04:00 +20°C° 0.1 mm 0 mps 706 mmHg 98%
    05:00 +20°C° 0.1 mm 0 mps 706 mmHg 98%
    06:00 +20°C° 0.1 mm 0 mps 706 mmHg 97%
    07:00 +21°C° 0.2 mm 0 mps 707 mmHg 93%
    08:00 +23°C° 0.2 mm 0 mps 707 mmHg 89%
    09:00 +25°C° 0.2 mm 0 mps 708 mmHg 84%
    10:00 +26°C° 1.1 mm 0 mps 708 mmHg 84%
    11:00 +28°C° 1.1 mm 1 mps 707 mmHg 83%
    12:00 +29°C° 1.1 mm 1 mps 707 mmHg 82%
    13:00 +29°C° 1.5 mm 1 mps 706 mmHg 83%
    14:00 +28°C° 1.5 mm 1 mps 706 mmHg 84%
    15:00 +28°C° 1.5 mm 1 mps 705 mmHg 85%
    16:00 +27°C° 1.4 mm 1 mps 706 mmHg 87%
    17:00 +26°C° 1.4 mm 1 mps 706 mmHg 90%
    18:00 +25°C° 1.4 mm 1 mps 706 mmHg 93%
    19:00 +24°C° 0.7 mm 1 mps 706 mmHg 94%
    20:00 +23°C° 0.7 mm 1 mps 707 mmHg 95%
    21:00 +22°C° 0.7 mm 1 mps 707 mmHg 96%
    22:00 +22°C° 0.2 mm 1 mps 707 mmHg 97%
    23:00 +20°C° 0.2 mm 0 mps 707 mmHg 97%

    Day after tomorrow, 20 August, Tuesday

    Time Temperature Precipitation Wind Pressure Humidity
    00:00 +19°C° 0.2 mm 0 mps 707 mmHg 97%
    01:00 +19°C° 0 mm 0 mps 707 mmHg 97%
    02:00 +19°C° 0 mm 0 mps 706 mmHg 97%
    03:00 +19°C° 0 mm 0 mps 706 mmHg 97%
    04:00 +19°C° 0 mm 0 mps 706 mmHg 97%
    05:00 +19°C° 0 mm 0 mps 706 mmHg 97%
    06:00 +19°C° 0 mm 0 mps 706 mmHg 98%
    07:00 +20°C° 0 mm 0 mps 707 mmHg 93%
    08:00 +22°C° 0 mm 0 mps 708 mmHg 88%
    09:00 +24°C° 0 mm 0 mps 708 mmHg 84%
    10:00 +25°C° 0.2 mm 0 mps 708 mmHg 79%
    11:00 +27°C° 0.2 mm 0 mps 708 mmHg 74%
    12:00 +28°C° 0.2 mm 0 mps 708 mmHg 69%
    13:00 +28°C° 0.9 mm 0 mps 707 mmHg 71%
    14:00 +28°C° 0.9 mm 0 mps 707 mmHg 72%
    15:00 +28°C° 0.9 mm 0 mps 706 mmHg 74%
    16:00 +26°C° 1.2 mm 0 mps 706 mmHg 80%
    17:00 +25°C° 1.2 mm 0 mps 706 mmHg 85%
    18:00 +23°C° 1.2 mm 0 mps 707 mmHg 91%
    19:00 +23°C° 0.3 mm 0 mps 707 mmHg 92%
    20:00 +22°C° 0.3 mm 0 mps 707 mmHg 93%
    21:00 +21°C° 0.3 mm 0 mps 708 mmHg 94%
    22:00 +21°C° 0.1 mm 0 mps 708 mmHg 94%
    23:00 +21°C° 0.1 mm 0 mps 708 mmHg 95%

    21 August, Wednesday

    Time Temperature Precipitation Wind Pressure Humidity
    00:00 +20°C° 0.1 mm 0 mps 708 mmHg 96%
    01:00 +20°C° 0 mm 0 mps 707 mmHg 96%
    02:00 +20°C° 0 mm 0 mps 707 mmHg 97%
    03:00 +20°C° 0 mm 0 mps 707 mmHg 97%
    04:00 +20°C° 0 mm 0 mps 707 mmHg 98%
    05:00 +20°C° 0 mm 0 mps 707 mmHg 98%
    06:00 +20°C° 0 mm 0 mps 708 mmHg 98%
    07:00 +23°C° 0 mm 1 mps 708 mmHg 94%
    08:00 +25°C° 0 mm 1 mps 708 mmHg 89%
    09:00 +27°C° 0 mm 1 mps 709 mmHg 85%
    10:00 +28°C° 0 mm 1 mps 709 mmHg 79%
    11:00 +29°C° 0 mm 1 mps 709 mmHg 73%
    12:00 +31°C° 0 mm 2 mps 709 mmHg 67%
    13:00 +31°C° 0.2 mm 2 mps 708 mmHg 66%
    14:00 +31°C° 0.2 mm 2 mps 707 mmHg 65%
    15:00 +31°C° 0.2 mm 2 mps 707 mmHg 64%
    16:00 +30°C° 0.9 mm 1 mps 707 mmHg 72%
    17:00 +28°C° 0.9 mm 1 mps 707 mmHg 81%
    18:00 +26°C° 0.9 mm 1 mps 707 mmHg 90%
    19:00 +25°C° 0.1 mm 1 mps 707 mmHg 92%
    20:00 +24°C° 0.1 mm 1 mps 708 mmHg 94%
    21:00 +24°C° 0.1 mm 1 mps 708 mmHg 96%
    22:00 +23°C° 0.4 mm 1 mps 708 mmHg 97%
    23:00 +23°C° 0.4 mm 1 mps 708 mmHg 97%

    22 August, Thursday

    Time Temperature Precipitation Wind Pressure Humidity
    00:00 +23°C° 0.4 mm 1 mps 708 mmHg 98%
    01:00 +23°C° 0.1 mm 1 mps 708 mmHg 98%
    02:00 +23°C° 0.1 mm 1 mps 708 mmHg 98%
    03:00 +21°C° 0.1 mm 0 mps 707 mmHg 98%
    04:00 +22°C° 0 mm 1 mps 708 mmHg 98%
    05:00 +22°C° 0 mm 1 mps 708 mmHg 98%
    06:00 +22°C° 0 mm 1 mps 708 mmHg 98%
    07:00 +24°C° 0 mm 1 mps 708 mmHg 94%
    08:00 +25°C° 0 mm 1 mps 709 mmHg 90%
    09:00 +26°C° 0 mm 1 mps 709 mmHg 86%
    10:00 +28°C° 0 mm 1 mps 709 mmHg 79%
    11:00 +30°C° 0 mm 1 mps 709 mmHg 72%
    12:00 +31°C° 0 mm 1 mps 708 mmHg 66%
    13:00 +32°C° 0 mm 1 mps 708 mmHg 63%
    14:00 +32°C° 0 mm 1 mps 707 mmHg 60%
    15:00 +32°C° 0 mm 1 mps 707 mmHg 56%
    16:00 +31°C° 0.1 mm 1 mps 707 mmHg 64%
    17:00 +29°C° 0.1 mm 1 mps 707 mmHg 72%
    18:00 +27°C° 0.1 mm 1 mps 707 mmHg 80%
    19:00 +26°C° 0 mm 1 mps 707 mmHg 84%
    20:00 +25°C° 0 mm 1 mps 708 mmHg 88%
    21:00 +24°C° 0 mm 1 mps 708 mmHg 92%
    22:00 +23°C° 0 mm 1 mps 708 mmHg 94%
    23:00 +23°C° 0 mm 1 mps 708 mmHg 96%

    23 August, Friday

    Time Temperature Precipitation Wind Pressure Humidity
    00:00 +23°C° 0 mm 1 mps 708 mmHg 97%
    01:00 +23°C° 0 mm 1 mps 708 mmHg 97%
    02:00 +23°C° 0 mm 1 mps 707 mmHg 97%
    03:00 +23°C° 0 mm 1 mps 707 mmHg 97%
    04:00 +23°C° 0 mm 1 mps 707 mmHg 97%
    05:00 +21°C° 0 mm 0 mps 707 mmHg 97%
    06:00 +21°C° 0 mm 0 mps 708 mmHg 96%
    07:00 +22°C° 0 mm 0 mps 708 mmHg 90%
    08:00 +26°C° 0 mm 1 mps 709 mmHg 84%
    09:00 +28°C° 0 mm 1 mps 709 mmHg 78%
    10:00 +29°C° 0.1 mm 1 mps 709 mmHg 73%
    11:00 +31°C° 0.1 mm 1 mps 709 mmHg 68%
    12:00 +32°C° 0.1 mm 1 mps 709 mmHg 63%
    13:00 +30°C° 0.5 mm 0 mps 708 mmHg 63%
    14:00 +30°C° 0.5 mm 0 mps 708 mmHg 64%
    15:00 +30°C° 0.5 mm 0 mps 707 mmHg 64%
    16:00 +28°C° 2.4 mm 0 mps 707 mmHg 73%
    17:00 +28°C° 2.4 mm 1 mps 707 mmHg 82%
    18:00 +26°C° 2.4 mm 1 mps 707 mmHg 91%
    19:00 +25°C° 0.8 mm 1 mps 707 mmHg 92%
    20:00 +23°C° 0.8 mm 0 mps 708 mmHg 93%
    21:00 +22°C° 0.8 mm 0 mps 708 mmHg 93%
    22:00 +22°C° 0.4 mm 0 mps 708 mmHg 94%
    23:00 +21°C° 0.4 mm 0 mps 708 mmHg 94%
    Show more